DW7729 Weather Reports


Display with metric or nautical units.
time (UTC)temp
F
wind
direction
speed
MPH
gust
MPH
rain 1hr
in
rain 24hr
in
rain mn
in
humidity
%
barometer
mb
20171215233529 25 225 4.0 0.0 0.00 0.00 0.00 77 1011.4
20171215233028 25 257 6.0 0.0 0.00 0.00 0.00 77 1011.2
20171215232528 25 242 5.0 0.0 0.00 0.00 0.00 78 1011.2
20171215232028 25 251 9.0 0.0 0.00 0.00 0.00 78 1011.0
20171215231526 25 246 7.0 0.0 0.00 0.00 0.00 78 1011.1
20171215231025 25 216 6.0 0.0 0.00 0.00 0.00 78 1011.0
20171215230526 25 232 3.0 0.0 0.00 0.00 0.00 78 1010.9
20171215230027 25 250 6.0 0.0 0.00 0.00 0.00 79 1010.7
20171215225529 25 231 8.0 0.0 0.00 0.00 0.00 79 1010.9
20171215225029 25 227 9.0 0.0 0.00 0.00 0.00 79 1010.7
20171215224529 25 234 6.0 0.0 0.00 0.00 0.00 80 1010.5
20171215224026 25 242 7.0 0.0 0.00 0.00 0.00 80 1010.7
20171215223525 25 219 5.0 0.0 0.00 0.00 0.00 80 1010.6
20171215223029 25 261 7.0 0.0 0.00 0.00 0.00 80 1010.4
20171215222532 25 218 4.0 0.0 0.00 0.00 0.00 81 1010.3
20171215222030 25 226 8.0 0.0 0.00 0.00 0.00 81 1010.6
20171215221529 25 249 9.0 0.0 0.00 0.00 0.00 81 1010.5
20171215221030 25 251 6.0 0.0 0.00 0.00 0.00 81 1010.3
20171215220530 25 255 10.0 0.0 0.00 0.00 0.00 82 1010.2
20171215215534 25 253 6.0 0.0 0.00 0.00 0.00 83 1010.3
20171215215034 25 265 7.0 0.0 0.00 0.00 0.00 83 1010.0
20171215214532 25 259 10.0 0.0 0.00 0.00 0.00 84 1010.1
20171215214030 25 233 4.0 0.0 0.00 0.00 0.00 85 1010.1
20171215213528 25 217 3.0 0.0 0.00 0.00 0.00 85 1010.1
20171215213029 25 211 7.0 0.0 0.00 0.00 0.00 86 1009.9
20171215212529 25 247 5.0 0.0 0.00 0.00 0.00 86 1009.9
20171215212034 25 260 7.0 0.0 0.00 0.00 0.00 87 1009.8
20171215211537 25 266 3.0 0.0 0.00 0.00 0.00 88 1009.9
20171215211038 25 263 4.0 0.0 0.00 0.00 0.00 88 1009.9
20171215210539 25 253 11.0 0.0 0.00 0.00 0.00 88 1009.9
20171215210038 25 230 7.0 0.0 0.00 0.00 0.00 88 1009.5
20171215205537 25 261 2.0 0.0 0.00 0.00 0.00 88 1009.5
20171215205036 25 281 8.0 0.0 0.00 0.00 0.00 88 1009.4
20171215204535 25 273 4.0 0.0 0.00 0.00 0.00 88 1009.6
20171215204036 25 285 4.0 0.0 0.00 0.00 0.00 88 1009.6
20171215203533 25 269 5.0 0.0 0.00 0.00 0.00 88 1009.6
20171215203033 25 229 9.0 0.0 0.00 0.00 0.00 87 1009.5
20171215202540 25 241 4.0 0.0 0.00 0.00 0.00 87 1009.7
20171215202040 25 295 2.0 0.0 0.00 0.00 0.00 87 1009.2
20171215201525 25 228 5.0 0.0 0.00 0.00 0.00 87 1009.5
20171215201027 25 265 5.0 0.0 0.00 0.00 0.00 86 1009.4
20171215200527 25 261 8.0 0.0 0.00 0.00 0.00 86 1009.3
20171215200028 25 249 8.0 0.0 0.00 0.00 0.00 85 1009.4
20171215195527 25 241 6.0 0.0 0.00 0.00 0.00 84 1009.6
20171215195029 25 249 7.0 0.0 0.00 0.00 0.00 84 1009.3
20171215194531 25 277 2.0 0.0 0.00 0.00 0.00 84 1009.3
20171215194029 25 271 8.0 0.0 0.00 0.00 0.00 83 1009.2
20171215193527 25 209 8.0 0.0 0.00 0.00 0.00 83 1009.3
20171215193026 25 245 12.0 0.0 0.00 0.00 0.00 83 1009.2
20171215192527 25 246 3.0 0.0 0.00 0.00 0.00 82 1009.0
20171215192025 25 225 9.0 0.0 0.00 0.00 0.00 83 1009.2
20171215191526 25 215 11.0 0.0 0.00 0.00 0.00 83 1009.3
20171215191028 25 229 7.0 0.0 0.00 0.00 0.00 83 1008.9
20171215190528 25 232 10.0 0.0 0.00 0.00 0.00 83 1009.0
20171215190029 25 200 14.0 0.0 0.00 0.00 0.00 83 1008.7
20171215185529 25 227 10.0 0.0 0.00 0.00 0.00 83 1008.9
20171215185029 25 237 14.0 0.0 0.00 0.00 0.00 83 1009.0
20171215184530 25 244 5.0 0.0 0.00 0.00 0.00 83 1008.9
20171215184030 25 214 11.0 0.0 0.00 0.00 0.00 84 1008.8
20171215183531 25 195 9.0 0.0 0.00 0.00 0.00 84 1008.9
20171215183029 25 219 13.0 0.0 0.00 0.00 0.00 84 1008.9
20171215182530 25 229 11.0 0.0 0.00 0.00 0.00 84 1008.9
20171215182030 24 238 6.0 0.0 0.00 0.00 0.00 84 1008.7
20171215181529 24 240 10.0 0.0 0.00 0.00 0.00 85 1009.0
20171215181029 24 231 12.0 0.0 0.00 0.00 0.00 85 1008.9
20171215180534 24 209 5.0 0.0 0.00 0.00 0.00 85 1009.0
20171215180034 24 239 8.0 0.0 0.00 0.00 0.00 85 1008.6
20171215175533 24 205 10.0 0.0 0.00 0.00 0.00 85 1008.9
20171215175033 24 176 9.0 0.0 0.00 0.00 0.00 85 1009.0
20171215174532 24 220 8.0 0.0 0.00 0.00 0.00 86 1008.8
20171215174031 24 210 5.0 0.0 0.00 0.00 0.00 86 1009.0
20171215173530 23 231 6.0 0.0 0.00 0.00 0.00 86 1009.2
20171215173029 23 156 5.0 0.0 0.00 0.00 0.00 86 1008.8
20171215172529 23 178 5.0 0.0 0.00 0.00 0.00 86 1008.9
20171215172028 23 185 7.0 0.0 0.00 0.00 0.00 86 1009.4
20171215171529 23 174 8.0 0.0 0.00 0.00 0.00 86 1009.4
20171215171030 23 215 11.0 0.0 0.00 0.00 0.00 86 1009.4
20171215170527 23 202 9.0 0.0 0.00 0.00 0.00 86 1009.5
20171215170031 22 168 3.0 0.0 0.00 0.00 0.00 87 1009.4
20171215165532 22 192 10.0 0.0 0.00 0.00 0.00 86 1009.4
20171215165030 22 218 3.0 0.0 0.00 0.00 0.00 86 1009.7
20171215164530 22 225 11.0 0.0 0.00 0.00 0.00 86 1009.6
20171215164028 22 197 7.0 0.0 0.00 0.00 0.00 86 1009.7
20171215163526 22 203 10.0 0.0 0.00 0.00 0.00 86 1009.5
20171215163025 22 159 4.0 0.0 0.00 0.00 0.00 86 1009.9
20171215162526 22 177 10.0 0.0 0.00 0.00 0.00 86 1009.8
20171215162026 22 182 7.0 0.0 0.00 0.00 0.00 86 1010.1
20171215161525 22 206 6.0 0.0 0.00 0.00 0.00 85 1010.4
20171215161025 22 194 9.0 0.0 0.00 0.00 0.00 85 1010.2
20171215160524 22 183 6.0 0.0 0.00 0.00 0.00 84 1010.1
20171215160024 22 188 9.0 0.0 0.00 0.00 0.00 84 1010.5
20171215155526 22 192 8.0 0.0 0.00 0.00 0.00 84 1010.6
20171215155025 22 178 10.0 0.0 0.00 0.00 0.00 83 1010.6
20171215154523 21 193 6.0 0.0 0.00 0.00 0.00 83 1010.5
20171215154023 21 160 3.0 0.0 0.00 0.00 0.00 83 1010.5
20171215153523 21 185 1.0 0.0 0.00 0.00 0.00 83 1010.5
20171215153023 21 194 5.0 0.0 0.00 0.00 0.00 83 1010.6
20171215152522 21 171 6.0 0.0 0.00 0.00 0.00 83 1010.8
20171215152022 21 159 12.0 0.0 0.00 0.00 0.00 83 1010.8
20171215151522 21 170 6.0 0.0 0.00 0.00 0.00 83 1010.9
20171215151041 20 180 6.0 0.0 0.00 0.00 0.00 83 1010.9
20171215150541 20 134 3.0 0.0 0.00 0.00 0.00 82 1011.0
20171215150039 20 169 5.0 0.0 0.00 0.00 0.00 83 1011.2
20171215145538 20 161 7.0 0.0 0.00 0.00 0.00 83 1011.4
20171215145022 20 225 4.0 0.0 0.00 0.00 0.00 83 1011.2
20171215144541 20 203 6.0 0.0 0.00 0.00 0.00 83 1011.4
20171215144041 20 176 6.0 0.0 0.00 0.00 0.00 83 1011.3
20171215143538 19 160 6.0 0.0 0.00 0.00 0.00 83 1011.3
20171215143039 19 159 7.0 0.0 0.00 0.00 0.00 83 1011.5
20171215142537 19 183 6.0 0.0 0.00 0.00 0.00 83 1011.7
20171215142038 19 187 9.0 0.0 0.00 0.00 0.00 83 1011.4
20171215141537 19 228 3.0 0.0 0.00 0.00 0.00 83 1011.8
20171215141037 19 186 9.0 0.0 0.00 0.00 0.00 83 1011.5
20171215140538 19 167 5.0 0.0 0.00 0.00 0.00 83 1011.7
20171215140037 19 184 4.0 0.0 0.00 0.00 0.00 82 1011.6
20171215135537 19 181 6.0 0.0 0.00 0.00 0.00 82 1011.8
20171215135035 19 159 6.0 0.0 0.00 0.00 0.00 82 1011.7
20171215134519 18 164 6.0 0.0 0.00 0.00 0.00 82 1011.9
20171215134041 18 162 3.0 0.0 0.00 0.00 0.00 81 1011.9
20171215133538 18 171 3.0 0.0 0.00 0.00 0.00 81 1011.9
20171215133038 18 185 4.0 0.0 0.00 0.00 0.00 82 1012.1
20171215132537 18 173 5.0 0.0 0.00 0.00 0.00 81 1011.9
20171215132032 18 176 4.0 0.0 0.00 0.00 0.00 81 1012.0
20171215131532 18 171 4.0 0.0 0.00 0.00 0.00 81 1012.2
20171215131032 18 161 4.0 0.0 0.00 0.00 0.00 81 1012.2
20171215130531 18 171 4.0 0.0 0.00 0.00 0.00 81 1012.3
20171215130031 18 184 4.0 0.0 0.00 0.00 0.00 81 1012.0
20171215125531 18 170 11.0 0.0 0.00 0.00 0.00 80 1012.0
20171215125032 18 187 6.0 0.0 0.00 0.00 0.00 80 1012.4
20171215124530 18 172 4.0 0.0 0.00 0.00 0.00 79 1012.5
20171215124029 18 191 5.0 0.0 0.00 0.00 0.00 80 1012.5
20171215123535 18 170 8.0 0.0 0.00 0.00 0.00 80 1012.4
20171215123035 18 168 7.0 0.0 0.00 0.00 0.00 80 1012.6
20171215122535 18 158 4.0 0.0 0.00 0.00 0.00 79 1012.5
20171215122036 18 178 5.0 0.0 0.00 0.00 0.00 79 1012.6
20171215121536 18 147 3.0 0.0 0.00 0.00 0.00 78 1012.8
20171215121036 18 186 7.0 0.0 0.00 0.00 0.00 79 1012.6
20171215120535 17 170 6.0 0.0 0.00 0.00 0.00 79 1012.9
20171215120033 17 177 10.0 0.0 0.00 0.00 0.00 79 1013.0
20171215115530 17 185 3.0 0.0 0.00 0.00 0.00 78 1013.1
20171215115031 17 173 4.0 0.0 0.00 0.00 0.00 79 1012.8
20171215114530 17 167 10.0 0.0 0.00 0.00 0.00 79 1013.0
20171215114031 17 181 4.0 0.0 0.00 0.00 0.00 78 1013.1
20171215113532 17 153 9.0 0.0 0.00 0.00 0.00 78 1013.0
20171215113038 17 167 6.0 0.0 0.00 0.00 0.00 78 1013.1
20171215112537 17 173 3.0 0.0 0.00 0.00 0.00 78 1013.0
20171215112033 17 148 6.0 0.0 0.00 0.00 0.00 78 1013.0
20171215111534 17 177 6.0 0.0 0.00 0.00 0.00 78 1013.2
20171215111032 17 182 7.0 0.0 0.00 0.00 0.00 77 1012.9
20171215110531 17 194 6.0 0.0 0.00 0.00 0.00 77 1013.0
20171215110032 17 163 6.0 0.0 0.00 0.00 0.00 77 1013.2
20171215105530 17 181 5.0 0.0 0.00 0.00 0.00 77 1013.1
20171215105030 17 182 5.0 0.0 0.00 0.00 0.00 77 1013.4
20171215104527 17 210 3.0 0.0 0.00 0.00 0.00 77 1013.0
20171215104026 17 174 6.0 0.0 0.00 0.00 0.00 77 1013.5
20171215103525 17 185 3.0 0.0 0.00 0.00 0.00 77 1013.0
20171215103026 17 189 6.0 0.0 0.00 0.00 0.00 77 1012.9
20171215102530 17 186 4.0 0.0 0.00 0.00 0.00 76 1013.2
20171215102032 17 174 1.0 0.0 0.00 0.00 0.00 77 1013.2
20171215101529 18 157 5.0 0.0 0.00 0.00 0.00 76 1013.4
20171215101027 17 205 9.0 0.0 0.00 0.00 0.00 77 1013.4
20171215100527 17 188 5.0 0.0 0.00 0.00 0.00 77 1013.5
20171215100025 18 169 4.0 0.0 0.00 0.00 0.00 77 1013.7
20171215095526 18 191 6.0 0.0 0.00 0.00 0.00 77 1013.7
20171215095025 17 195 7.0 0.0 0.00 0.00 0.00 78 1014.2
20171215094525 17 184 2.0 0.0 0.00 0.00 0.00 78 1014.0
20171215094022 17 219 0.0 0.0 0.00 0.00 0.00 78 1014.2
20171215093539 17 169 2.0 0.0 0.00 0.00 0.00 78 1014.2
20171215093039 17 197 2.0 0.0 0.00 0.00 0.00 78 1014.3
20171215092538 17 172 4.0 0.0 0.00 0.00 0.00 77 1014.3
20171215092038 17 182 4.0 0.0 0.00 0.00 0.00 77 1014.2
20171215091519 17 192 5.0 0.0 0.00 0.00 0.00 78 1014.2
20171215091041 17 188 9.0 0.0 0.00 0.00 0.00 78 1014.4
20171215090538 16 186 4.0 0.0 0.00 0.00 0.00 78 1014.3
20171215090039 16 165 4.0 0.0 0.00 0.00 0.00 77 1014.5
20171215085539 16 187 4.0 0.0 0.00 0.00 0.00 78 1014.5
20171215085038 16 176 7.0 0.0 0.00 0.00 0.00 78 1014.6
20171215084537 16 204 7.0 0.0 0.00 0.00 0.00 78 1014.8
20171215084036 16 198 2.0 0.0 0.00 0.00 0.00 78 1014.7
20171215083536 16 193 4.0 0.0 0.00 0.00 0.00 79 1014.7
20171215083036 16 152 6.0 0.0 0.00 0.00 0.00 79 1014.8
20171215082537 16 180 2.0 0.0 0.00 0.00 0.00 79 1014.9
20171215082035 16 186 6.0 0.0 0.00 0.00 0.00 80 1014.8
20171215081535 16 175 4.0 0.0 0.00 0.00 0.00 80 1015.0
20171215081039 15 161 3.0 0.0 0.00 0.00 0.00 81 1015.1
20171215080538 15 165 4.0 0.0 0.00 0.00 0.00 81 1015.1
20171215080037 15 187 2.0 0.0 0.00 0.00 0.00 82 1015.0
20171215075533 15 217 3.0 0.0 0.00 0.00 0.00 81 1015.0
20171215075034 15 209 2.0 0.0 0.00 0.00 0.00 81 1014.9
20171215074532 15 181 7.0 0.0 0.00 0.00 0.00 81 1015.2
20171215074033 15 224 3.0 0.0 0.00 0.00 0.00 81 1015.1
20171215073530 15 216 3.0 0.0 0.00 0.00 0.00 81 1015.0
20171215073031 15 173 3.0 0.0 0.00 0.00 0.00 81 1015.2
20171215072528 15 188 3.0 0.0 0.00 0.00 0.00 81 1015.4
20171215072026 15 193 4.0 0.0 0.00 0.00 0.00 81 1015.6
20171215071525 15 185 4.0 0.0 0.00 0.00 0.00 81 1015.2
20171215071025 15 180 2.0 0.0 0.00 0.00 0.00 80 1015.1
20171215070529 15 185 2.0 0.0 0.00 0.00 0.00 81 1015.6
20171215070029 15 193 3.0 0.0 0.00 0.00 0.00 80 1015.5
20171215065528 15 179 3.0 0.0 0.00 0.00 0.00 80 1015.4
20171215065027 15 178 2.0 0.0 0.00 0.00 0.00 81 1015.8
20171215064527 15 164 0.0 0.0 0.00 0.00 0.00 81 1015.4
20171215064027 15 163 3.0 0.0 0.00 0.00 0.00 81 1015.4
20171215063527 15 192 4.0 0.0 0.00 0.00 0.00 81 1015.5
20171215063026 15 196 3.0 0.0 0.00 0.00 0.00 79 1015.5
20171215062527 15 197 1.0 0.0 0.00 0.00 0.00 80 1015.7
20171215062028 15 224 2.0 0.0 0.00 0.00 0.00 80 1016.1
20171215061524 15 221 0.0 0.0 0.00 0.00 0.00 80 1015.7
20171215061023 15 230 1.0 0.0 0.00 0.00 0.00 79 1015.9
20171215060540 15 215 3.0 0.0 0.00 0.00 0.00 79 1016.2
20171215060023 15 188 0.0 0.0 0.00 0.00 0.00 79 1016.0
20171215055524 15 182 5.0 0.0 0.00 0.00 0.00 79 1016.3
20171215055022 15 191 2.0 0.0 0.00 0.00 0.00 79 1016.0
20171215054522 15 187 2.0 0.0 0.00 0.00 0.00 79 1016.5
20171215054020 15 185 2.0 0.0 0.00 0.00 0.00 78 1016.5
20171215053521 15 186 3.0 0.0 0.00 0.00 0.00 78 1016.2
20171215053022 15 190 3.0 0.0 0.00 0.00 0.00 78 1016.5
20171215052523 15 191 2.0 0.0 0.00 0.00 0.00 78 1016.7
20171215052024 15 199 5.0 0.0 0.00 0.00 0.00 77 1016.3
20171215051543 15 200 6.0 0.0 0.00 0.00 0.00 77 1016.6
20171215051019 15 174 2.0 0.0 0.00 0.00 0.00 77 1016.6
20171215050521 15 186 2.0 0.0 0.00 0.00 0.00 76 1016.7
20171215050042 15 210 6.0 0.0 0.00 0.00 0.00 76 1016.7
20171215045523 15 185 3.0 0.0 0.00 0.00 0.00 76 1017.3
20171215045021 15 185 4.0 0.0 0.00 0.00 0.00 76 1017.1
20171215044522 15 201 3.0 0.0 0.00 0.00 0.00 76 1017.2
20171215044023 16 179 1.0 0.0 0.00 0.00 0.00 76 1017.1
20171215043540 16 177 5.0 0.0 0.00 0.00 0.00 77 1017.0
20171215043038 16 177 4.0 0.0 0.00 0.00 0.00 77 1017.2
20171215042537 16 182 7.0 0.0 0.00 0.00 0.00 77 1017.3
20171215042034 16 191 3.0 0.0 0.00 0.00 0.00 77 1017.2
20171215041533 16 193 1.0 0.0 0.00 0.00 0.00 78 1017.2
20171215041033 16 179 1.0 0.0 0.00 0.00 0.00 77 1017.3
20171215040532 16 223 2.0 0.0 0.00 0.00 0.00 77 1017.0
20171215040030 16 195 3.0 0.0 0.00 0.00 0.00 77 1017.3
20171215035527 16 192 4.0 0.0 0.00 0.00 0.00 77 1017.5
20171215035028 16 197 2.0 0.0 0.00 0.00 0.00 78 1017.3
20171215034530 16 196 1.0 0.0 0.00 0.00 0.00 77 1017.3
20171215034029 15 219 1.0 0.0 0.00 0.00 0.00 77 1017.4
20171215033528 15 217 3.0 0.0 0.00 0.00 0.00 77 1017.3
20171215033026 15 198 4.0 0.0 0.00 0.00 0.00 77 1017.2
20171215032525 15 196 7.0 0.0 0.00 0.00 0.00 77 1017.2
20171215032025 15 200 3.0 0.0 0.00 0.00 0.00 77 1017.7
20171215031526 15 200 1.0 0.0 0.00 0.00 0.00 76 1017.3
20171215031026 15 189 3.0 0.0 0.00 0.00 0.00 76 1017.2
20171215030527 15 189 2.0 0.0 0.00 0.00 0.00 76 1017.7
20171215030041 15 189 1.0 4.0 0.00 0.00 0.00 77 1017.4
20171215025532 15 191 3.0 5.0 0.00 0.00 0.00 76 1017.3
20171215025026 15 193 1.0 7.0 0.00 0.00 0.00 76 1017.4
20171215024536 15 168 3.0 7.0 0.00 0.00 0.00 76 1017.4
20171215024030 15 214 4.0 6.0 0.00 0.00 0.00 76 1017.3
20171215023542 15 206 3.0 5.0 0.00 0.00 0.00 77 1017.4
20171215023033 15 173 1.0 6.0 0.00 0.00 0.00 77 1017.4
20171215022530 15 182 4.0 6.0 0.00 0.00 0.00 77 1017.3
20171215022023 15 181 4.0 8.0 0.00 0.00 0.00 77 1017.9
20171215021536 15 173 3.0 8.0 0.00 0.00 0.00 77 1017.4
20171215021028 15 186 3.0 7.0 0.00 0.00 0.00 78 1017.4
20171215020540 15 181 5.0 7.0 0.00 0.00 0.00 78 1017.5
20171215020030 15 155 4.0 7.0 0.00 0.00 0.00 78 1017.6
20171215015543 15 176 3.0 7.0 0.00 0.00 0.00 79 1017.7
20171215015035 15 187 2.0 7.0 0.00 0.00 0.00 79 1017.7
20171215014529 15 181 5.0 7.0 0.00 0.00 0.00 79 1017.9
20171215014040 15 185 3.0 5.0 0.00 0.00 0.00 79 1017.9
20171215013532 14 182 4.0 5.0 0.00 0.00 0.00 79 1018.1
20171215013026 14 190 3.0 4.0 0.00 0.00 0.00 78 1018.1
20171215012539 14 192 1.0 7.0 0.00 0.00 0.00 79 1017.9
20171215012032 14 187 4.0 7.0 0.00 0.00 0.00 78 1018.0
20171215011525 14 182 4.0 6.0 0.00 0.00 0.00 78 1018.2
20171215011041 14 185 3.0 6.0 0.00 0.00 0.00 79 1018.2
20171215010533 14 215 2.0 5.0 0.00 0.00 0.00 78 1017.9
20171215010026 14 182 3.0 5.0 0.00 0.00 0.00 78 1017.8
20171215005537 14 197 0.0 4.0 0.00 0.00 0.00 77 1017.9
20171215005030 14 197 1.0 5.0 0.00 0.00 0.00 78 1017.9
20171215004528 14 194 4.0 5.0 0.00 0.00 0.00 78 1017.9
20171215004041 14 192 3.0 4.0 0.00 0.00 0.00 78 1017.6
20171215003532 14 194 2.0 5.0 0.00 0.00 0.00 79 1017.8
20171215003028 14 194 3.0 6.0 0.00 0.00 0.00 78 1017.8
20171215002540 14 194 3.0 6.0 0.00 0.00 0.00 78 1017.9
20171215002033 14 183 3.0 5.0 0.00 0.00 0.00 78 1018.0
20171215001526 14 195 4.0 7.0 0.00 0.00 0.00 78 1017.9
20171215001039 14 203 4.0 7.0 0.00 0.00 0.00 78 1017.9
20171215000531 14 182 3.0 6.0 0.00 0.00 0.00 78 1017.8
20171215000043 14 180 2.0 5.0 0.00 0.00 0.00 78 1017.5
20171214235535 14 189 2.0 5.0 0.00 0.00 0.00 78 1018.3
20171214235028 14 191 2.0 6.0 0.00 0.00 0.00 77 1018.1
20171214234540 14 181 3.0 6.0 0.00 0.00 0.00 77 1017.6
20171214234034 14 198 3.0 6.0 0.00 0.00 0.00 77 1017.8